Omaha, IA

4:12 PM CDT on July 27, 2017 (GMT -0500)
Eppley Airfield

Weather History for KOMA - October, 2010

Change the Weather History Date:

Sunday, October 31, 2010

  Actual Average Record
Temperature  
Mean Temperature 45 °F 47 °F  
Max Temperature 52 °F 58 °F 83 °F (1950)
Min Temperature 37 °F 36 °F 15 °F (1993)
Degree Days  
Heating Degree Days 20 18  
Month to date heating degree days 249 382  
Since 1 July heating degree days 297 485  
Cooling Degree Days 0 0  
Month to date cooling degree days 16 15  
Year to date cooling degree days 1388 1112  
Moisture  
Dew Point 34 °F    
Average Humidity 71    
Maximum Humidity 92    
Minimum Humidity 50    
Precipitation  
Precipitation 0.00 in 0.06 in 2.03 in (1920)
Month to date precipitation 0.16 2.15  
Year to date precipitation 32.07 27.94  
Snow  
Snow 0.00 in 0.00 in - ()
Month to date snowfall 0.0 0.3  
Since 1 July snowfall 0.0 0.3  
Snow Depth 0.00 in    
Sea Level Pressure  
Sea Level Pressure 30.17 in    
Wind  
Wind Speed 7 mph (ENE)    
Max Wind Speed 17 mph    
Max Gust Speed 21 mph    
Visibility 10 miles    
Events      
T = Trace of Precipitation, MM = Missing Value Source: NWS Daily Summary

Daily Weather History Graph

Daily Weather History Graph

Search for Another Location

Airport or City:

Trip Planner

Search our weather history database for the weather conditions in past years. The results will help you decide how hot, cold, wet, or windy it might be!

Date:

Astronomy

Oct. 31, 2010 Rise Set
Actual Time 7:53 AM CDT 6:19 PM CDT
Civil Twilight 7:25 AM CDT 6:48 PM CDT
Nautical Twilight 6:52 AM CDT 7:21 PM CDT
Astronomical Twilight 6:20 AM CDT 7:53 PM CDT
Moon 1:16 AM CDT (10/31) 3:00 PM CDT (10/31)
Length of Visible Light 11h 23m
Length of Day
10h 26m
Last Quarter, 37% of the Moon is Illuminated
Oct 31
Last Quarter
Nov 5
New
Nov 13
First Quarter
Nov 21
Full
Nov 28
Last Quarter

Hourly Weather History & Observations

Time (CDT) Temp. Windchill Dew Point Humidity Pressure Visibility Wind Dir Wind Speed Gust Speed Precip Events Conditions
12:52 AM 44.1 °F 42.5 °F 35.1 °F 71% 30.10 in 10.0 mi Variable 3.5 mph - N/A   Clear
1:52 AM 43.0 °F - 35.1 °F 74% 30.10 in 10.0 mi Calm Calm - N/A   Scattered Clouds
2:52 AM 41.0 °F 37.1 °F 35.1 °F 79% 30.10 in 10.0 mi North 5.8 mph - N/A   Scattered Clouds
3:52 AM 39.0 °F 33.4 °F 35.1 °F 86% 30.11 in 10.0 mi North 8.1 mph - N/A   Scattered Clouds
4:52 AM 37.9 °F 34.4 °F 35.1 °F 89% 30.12 in 10.0 mi NNW 4.6 mph - N/A   Scattered Clouds
5:52 AM 39.0 °F 34.8 °F 35.1 °F 86% 30.12 in 10.0 mi NNW 5.8 mph - N/A   Scattered Clouds
6:52 AM 39.0 °F - 34.0 °F 82% 30.13 in 10.0 mi Calm Calm - N/A   Mostly Cloudy
7:52 AM 39.0 °F 35.7 °F 33.1 °F 79% 30.15 in 10.0 mi North 4.6 mph - N/A   Mostly Cloudy
8:52 AM 39.0 °F 34.8 °F 34.0 °F 82% 30.18 in 10.0 mi North 5.8 mph - N/A   Overcast
9:52 AM 44.1 °F 40.1 °F 34.0 °F 68% 30.20 in 10.0 mi NE 6.9 mph - N/A   Overcast
10:52 AM 46.0 °F 41.4 °F 34.0 °F 63% 30.20 in 10.0 mi East 9.2 mph - N/A   Overcast
11:52 AM 48.0 °F - 34.0 °F 58% 30.20 in 10.0 mi East 9.2 mph - N/A   Overcast
12:52 PM 48.9 °F - 35.1 °F 59% 30.17 in 10.0 mi East 10.4 mph - N/A   Overcast
1:52 PM 51.1 °F - 35.1 °F 54% 30.15 in 10.0 mi East 11.5 mph 20.7 mph N/A   Overcast
2:52 PM 52.0 °F - 34.0 °F 50% 30.14 in 10.0 mi ENE 12.7 mph - N/A   Overcast
3:52 PM 51.1 °F - 33.1 °F 50% 30.17 in 10.0 mi East 6.9 mph - N/A   Overcast
4:52 PM 52.0 °F - 34.0 °F 50% 30.18 in 10.0 mi East 8.1 mph - N/A   Overcast
5:52 PM 51.1 °F - 34.0 °F 52% 30.18 in 10.0 mi ENE 5.8 mph - N/A   Overcast
6:52 PM 50.0 °F - 34.0 °F 54% 30.17 in 10.0 mi East 5.8 mph - N/A   Overcast
7:52 PM 48.9 °F - 34.0 °F 56% 30.19 in 10.0 mi ENE 8.1 mph - N/A   Overcast
8:52 PM 48.9 °F - 34.0 °F 56% 30.21 in 10.0 mi East 8.1 mph - N/A   Overcast
9:52 PM 48.0 °F - 33.1 °F 56% 30.22 in 10.0 mi East 8.1 mph - N/A   Overcast
10:52 PM 46.0 °F 43.9 °F 32.0 °F 58% 30.25 in 10.0 mi East 4.6 mph - N/A   Overcast
11:52 PM 46.0 °F - 32.0 °F 58% 30.27 in 10.0 mi Calm Calm - N/A   Mostly Cloudy